Location: Altavilla Irpina
(41.0000°N, 14.7833°E)
Time: 19:11:27
(UTC+00:00)

Cosmos 1570 Rocket - Pass Details

Date: 19 May 2025
Orbit: 759 x 785 km, 74.1° (Epoch: 20 June)

Event Time Altitude Azimuth Distance (km) Brightness Sun altitude
Exits shadow 19:39:22 15° 164° (SSE) 1,964 5.6 -13.7°
Maximum altitude 19:43:14 39° 102° (ESE) 1,142 4.5 -14.2°
Drops below altitude 10° 19:48:05 10° 35° (NE) 2,319 6.6 -14.9°
Sets 19:50:35 0° 28° (NNE) 3,255 7.5 -15.2°
